"2010-10-17 00:00:00",253741,2.826,116.2,5.805,0.898,13.41,105.1946,12.57,13.66,38.19,0,110.4,13.26,13.37,78.2
"2010-10-17 00:00:30",253742,3.674,112.5,7.867,1.176,13.99,105.1828,12.54,13.44,37.95,0,110.4,13.26,13.34,74.5
"2010-10-17 00:01:00",253743,2.606,109,0.771,0.11,12.61,105.181,12.54,13.46,37.93,0,110.4,13.3,13.33,71.0
"2010-10-17 00:01:30",253744,2.758,112.9,3.976,0.845,12.77,105.1884,12.55,13.45,37.92,0,110.4,13.26,13.35,74.9
"2010-10-17 00:02:00",253745,3.403,115.6,6.304,1.27,14.67,105.1908,12.56,13.63,38.14,0,110.5,13.26,13.36,77.6
"2010-10-17 00:02:30",253746,3.838,120.6,6.744,1.375,15.86,105.1949,12.57,13.57,38.13,0,110.4,13.26,13.37,82.6
"2010-10-17 00:03:00",253747,2.283,112.4,1.071,0.064,12.86,105.1982,12.58,13.5,38.08,0,110.4,13.3,13.38,74.4
"2010-10-17 00:03:30",253748,2.139,112.8,1.135,0.044,12.65,105.2003,12.59,13.43,38.01,0,110.4,13.3,13.38,74.8
"2010-10-17 00:04:00",253749,3.435,117.8,7.389,1.358,14.72,105.2035,12.59,13.48,38.07,0,110.4,13.27,13.39,79.8
"2010-10-17 00:04:30",253750,2.779,110.9,5.577,1.206,14.3,105.2044,12.6,13.58,38.14,0,110.4,13.27,13.39,72.9
"2010-10-17 00:05:00",253751,2.744,104.2,5.132,0.99,13.17,105.2009,12.59,13.41,37.98,0,110.4,13.27,13.38,66.2
"2010-10-17 00:05:30",253752,2.548,103.5,1.93,0.104,12.42,105.1959,12.57,13.41,37.96,0,110.4,13.31,13.37,65.5
"2010-10-17 00:06:00",253753,3.641,111.5,7.02,1.411,14.71,105.188,12.55,13.57,38.1,0,110.4,13.27,13.35,73.5
"2010-10-17 00:06:30",253754,2.457,105.8,1.152,0.069,12.8,105.1815,12.54,13.53,38.04,0,110.4,13.31,13.33,67.8
"2010-10-17 00:07:00",253755,2.354,106.8,1.322,0.037,12.61,105.1761,12.52,13.39,37.92,0,110.4,13.31,13.32,68.8
"2010-10-17 00:07:30",253756,2.316,112.7,1.346,0.065,12.52,105.1756,12.52,13.39,37.92,0,110.4,13.31,13.32,74.7
"2010-10-17 00:08:00",253757,2.875,112.3,5.665,1.063,13.86,105.1742,12.52,13.49,38.01,0,110.4,13.28,13.31,74.3
"2010-10-17 00:08:30",253758,4.227,119.8,6,1.4,16.25,105.1742,12.52,13.51,38.1,0,110.4,13.28,13.31,81.8
"2010-10-17 00:09:00",253759,2.906,109.5,5.557,0.822,13.73,105.1742,12.52,13.52,38.13,0,110.4,13.28,13.31,71.5
"2010-10-17 00:09:30",253760,3.729,115.3,5.533,1.32,14.77,105.1742,12.52,13.43,38.06,0,110.4,13.27,13.31,77.3
"2010-10-17 00:10:00",253761,3.271,111.2,6.673,1.093,13.38,105.1742,12.52,13.43,38.14,0,110.4,13.28,13.31,73.2
"2010-10-17 00:10:30",253762,3.917,117.7,5.773,1.362,14.94,105.1742,12.52,13.51,38.2,0,110.4,13.28,13.31,79.7
"2010-10-17 00:11:00",253763,2.782,116.5,1.698,0.141,12.48,105.1742,12.52,13.39,38.02,0,110.4,13.32,13.31,78.5
"2010-10-17 00:11:30",253764,2.925,113.9,3.977,0.529,12.55,105.1742,12.52,13.39,38.03,0,110.4,13.28,13.31,75.9
"2010-10-17 00:12:00",253765,3.992,117.3,7.312,1.369,14.93,105.1742,12.52,13.54,38.17,0,110.4,13.28,13.31,79.3
"2010-10-17 00:12:30",253766,2.762,113.1,1.233,0.119,12.66,105.1733,12.52,13.37,37.98,0,110.4,13.32,13.31,75.1
"2010-10-17 00:13:00",253767,2.891,113,0.945,0.064,12.63,105.1702,12.51,13.37,37.91,0,110.4,13.32,13.30,75.0
"2010-10-17 00:13:30",253768,3.349,116.8,4.682,1.139,13.54,105.1651,12.5,13.4,37.92,0,110.4,13.28,13.29,78.8
"2010-10-17 00:14:00",253769,3.846,120.6,8.51,1.377,15.23,105.1595,12.48,13.49,38.02,0,110.4,13.28,13.28,82.6
"2010-10-17 00:14:30",253770,3.37,115.3,4.693,1.196,14.19,105.1531,12.46,13.45,37.97,0,110.4,13.28,13.26,77.3
"2010-10-17 00:15:00",253771,3.748,121.6,8.34,1.334,14.89,105.1546,12.47,13.48,37.95,0,110.4,13.28,13.26,83.6
"2010-10-17 00:15:30",253772,3.106,116.8,5.497,1.117,14.04,105.1562,12.47,13.56,38.07,0,110.4,13.28,13.27,78.8
"2010-10-17 00:16:00",253773,3.287,113.6,6.364,1.231,13.56,105.1601,12.48,13.38,37.98,0,110.4,13.28,13.28,75.6
"2010-10-17 00:16:30",253774,2.602,112.5,0.935,0.038,12.34,105.1624,12.49,13.37,37.91,0,110.4,13.32,13.28,74.5
"2010-10-17 00:17:00",253775,2.637,116,1.162,0.042,12.4,105.1638,12.49,13.36,37.8,0,110.4,13.31,13.29,78.0
"2010-10-17 00:17:30",253776,3.869,119.4,7.117,1.325,14.89,105.1635,12.49,13.53,37.99,0,110.4,13.28,13.29,81.4
"2010-10-17 00:18:00",253777,2.806,113.3,0.691,0.085,12.75,105.1694,12.51,13.37,37.74,0,110.4,13.32,13.30,75.3
"2010-10-17 00:18:30",253778,2.823,114.9,1.345,0.072,12.78,105.1721,12.51,13.36,37.76,0,110.4,13.32,13.31,76.9
"2010-10-17 00:19:00",253779,3.046,117.4,3.466,0.918,13.01,105.1724,12.51,13.37,37.75,0,110.4,13.28,13.31,79.4
"2010-10-17 00:19:30",253780,3.858,122.3,6.804,1.358,15.27,105.1747,12.52,13.53,37.87,0,110.4,13.28,13.32,84.3
"2010-10-17 00:20:00",253781,3.783,120.3,6.483,1.296,15.23,105.1759,12.52,13.53,37.92,0,110.4,13.29,13.32,82.3
"2010-10-17 00:20:30",253782,3.092,115.8,4.141,0.708,13.8,105.1759,12.52,13.52,37.9,0,110.4,13.29,13.32,77.8
"2010-10-17 00:21:00",253783,3.931,118.5,6.336,1.344,15.32,105.1759,12.52,13.55,37.95,0,110.3,13.29,13.32,80.5
"2010-10-17 00:21:30",253784,3.028,110.9,2.998,0.677,12.76,105.1759,12.52,13.41,37.76,0,110.3,13.29,13.32,72.9
"2010-10-17 00:22:00",253785,2.838,110.2,1.407,0.07,12.49,105.1759,12.52,13.36,37.68,0,110.3,13.33,13.32,72.2
"2010-10-17 00:22:30",253786,3.128,109.9,4.647,0.816,13.29,105.1759,12.52,13.53,37.9,0,110.3,13.3,13.32,71.9
"2010-10-17 00:23:00",253787,3.824,112.3,6.251,1.275,13.91,105.1759,12.52,13.39,37.85,0,110.3,13.3,13.32,74.3
"2010-10-17 00:23:30",253788,3.281,111,4.068,0.707,13.22,105.1759,12.52,13.51,37.99,0,110.3,13.3,13.32,73.0
"2010-10-17 00:24:00",253789,3.095,109.6,0.874,0.05,12.44,105.1711,12.51,13.35,37.88,0,110.3,13.33,13.31,71.6
"2010-10-17 00:24:30",253790,4.115,115.9,6.729,1.356,14.74,105.1618,12.49,13.5,38.01,0,110.3,13.3,13.28,77.9
"2010-10-17 00:25:00",253791,3.776,113.2,6.731,1.22,14.78,105.1522,12.46,13.5,38.12,0,110.3,13.3,13.26,75.2
"2010-10-17 00:25:30",253792,4.217,114.4,6.89,1.348,15.43,105.1477,12.45,13.49,38.21,0,110.3,13.3,13.25,76.4
"2010-10-17 00:26:00",253793,3.684,111.9,6.273,1.209,14.44,105.1438,12.44,13.48,38.3,0,110.3,13.3,13.24,73.9
"2010-10-17 00:26:30",253794,4.061,115.8,7.155,1.357,15.24,105.1424,12.44,13.46,38.29,0,110.3,13.3,13.23,77.8
"2010-10-17 00:27:00",253795,2.829,110.3,0.941,0.036,12.58,105.1421,12.44,13.34,38.07,0,110.3,13.33,13.23,72.3
"2010-10-17 00:27:30",253796,2.824,110.6,0.693,0.025,12.28,105.1421,12.44,13.34,37.93,0,110.3,13.33,13.23,72.6
"2010-10-17 00:28:00",253797,4.006,119,6.958,1.299,14.72,105.1421,12.44,13.48,38.01,0,110.3,13.3,13.23,81.0
"2010-10-17 00:28:30",253798,3.139,112.8,4.607,0.82,13.46,105.1421,12.44,13.5,38.05,0,110.3,13.3,13.23,74.8
"2010-10-17 00:29:00",253799,2.899,110.8,2.773,0.505,12.74,105.1424,12.44,13.33,37.84,0,110.3,13.3,13.23,72.8
"2010-10-17 00:29:30",253800,2.776,109.8,1.098,0.034,12.53,105.1439,12.44,13.34,37.81,0,110.3,13.33,13.24,71.8
"2010-10-17 00:30:00",253801,2.949,110.7,4.226,0.556,13.5,105.1442,12.44,13.48,37.97,0,110.3,13.3,13.24,72.7
"2010-10-17 00:30:30",253802,3.644,112.1,6.988,1.28,14.54,105.1435,12.44,13.41,37.88,0,110.3,13.3,13.24,74.1
"2010-10-17 00:31:00",253803,2.685,107.3,1.064,0.037,13.22,105.1465,12.45,13.43,37.92,0,110.3,13.33,13.24,69.3
"2010-10-17 00:31:30",253804,4.293,114,7.836,1.31,16.58,105.1471,12.45,13.62,38.21,0,110.3,13.3,13.24,76.0
"2010-10-17 00:32:00",253805,2.577,104.1,3.633,0.519,12.96,105.1513,12.46,13.47,38.07,0,110.3,13.3,13.26,66.1
"2010-10-17 00:32:30",253806,2.293,102.5,4.022,0.054,12.69,105.1498,12.46,13.37,38.05,0,110.3,13.33,13.25,64.5
"2010-10-17 00:33:00",253807,2.258,100.8,2.172,0.061,12.16,105.1536,12.47,13.33,38.1,0,110.3,13.33,13.26,62.8
"2010-10-17 00:33:30",253808,2.372,100.3,1.526,0.076,12.31,105.1569,12.47,13.48,38.29,0,110.3,13.33,13.27,62.3
"2010-10-17 00:34:00",253809,3.83,111.3,4.515,1.253,14.63,105.1596,12.48,13.4,38.13,0,110.3,13.3,13.28,73.3
"2010-10-17 00:34:30",253810,2.665,107.3,1.382,0.057,12.55,105.1611,12.48,13.35,38.08,0,110.3,13.33,13.28,69.3
"2010-10-17 00:35:00",253811,2.629,105.1,2.353,0.095,12.56,105.1664,12.5,13.33,38.11,0,110.3,13.33,13.29,67.1
"2010-10-17 00:35:30",253812,2.594,104,2.093,0.1,12.78,105.1672,12.5,13.33,38.16,0,110.3,13.33,13.30,66.0
"2010-10-17 00:36:00",253813,3.854,109.2,7.152,1.377,15.44,105.1654,12.5,13.49,38.34,0,110.3,13.3,13.29,71.2
"2010-10-17 00:36:30",253814,2.708,105.6,2.016,0.105,13.33,105.1652,12.5,13.39,38.25,0,110.3,13.34,13.29,67.6
"2010-10-17 00:37:00",253815,4.087,114.7,5.944,1.353,15.64,105.1615,12.49,13.53,38.34,0,110.3,13.31,13.28,76.7
"2010-10-17 00:37:30",253816,4.407,115.7,6.46,1.287,15.49,105.1579,12.48,13.5,38.33,0,110.3,13.31,13.27,77.7
"2010-10-17 00:38:00",253817,2.878,108.6,1.911,0.048,12.61,105.1492,12.45,13.33,38.16,0,110.3,13.35,13.25,70.6
"2010-10-17 00:38:30",253818,2.91,105.7,1.289,0.041,12.26,105.1464,12.45,13.32,38.17,0,110.3,13.35,13.24,67.7
"2010-10-17 00:39:00",253819,3.871,110.5,6.865,1.267,14.53,105.1438,12.44,13.5,38.35,0,110.3,13.31,13.24,72.5
"2010-10-17 00:39:30",253820,3.188,107.1,2.864,0.804,12.34,105.1438,12.44,13.35,38.22,0,110.3,13.31,13.24,69.1
"2010-10-17 00:40:00",253821,3.005,110.3,1.285,0.049,12.07,105.1438,12.44,13.32,38.08,0,110.3,13.35,13.24,72.3
"2010-10-17 00:40:30",253822,2.945,107.6,0.491,0.036,12.27,105.1438,12.44,13.31,38.2,0,110.3,13.35,13.24,69.6
"2010-10-17 00:41:00",253823,3.94,114,7.072,1.325,14.56,105.1438,12.44,13.4,38.31,0,110.3,13.31,13.24,76.0
"2010-10-17 00:41:30",253824,3.277,110,5.108,0.961,14.16,105.1438,12.44,13.47,38.33,0,110.3,13.31,13.24,72.0
"2010-10-17 00:42:00",253825,3.775,111.2,7.012,1.298,14.81,105.1438,12.44,13.36,38.13,0,110.3,13.31,13.24,73.2
"2010-10-17 00:42:30",253826,4.747,117,6.265,1.216,16.7,105.1438,12.44,13.5,38.3,0,110.3,13.31,13.24,79.0
"2010-10-17 00:43:00",253827,4.477,115.9,7.032,1.334,15.8,105.1438,12.44,13.5,38.21,0,110.3,13.31,13.24,77.9
"2010-10-17 00:43:30",253828,2.957,108,1.331,0.044,12.32,105.1438,12.44,13.31,38.02,0,110.3,13.35,13.24,70.0
"2010-10-17 00:44:00",253829,2.969,107.3,0.782,0.039,12.07,105.1438,12.44,13.31,37.99,0,110.3,13.35,13.24,69.3
"2010-10-17 00:44:30",253830,4.223,114.6,6.742,1.346,14.44,105.1438,12.44,13.5,38.16,0,110.3,13.31,13.24,76.6
"2010-10-17 00:45:00",253831,2.936,107.3,1.083,0.054,12.22,105.1438,12.44,13.31,37.99,0,110.3,13.35,13.24,69.3
"2010-10-17 00:45:30",253832,2.884,106.9,1.376,0.056,12.26,105.1438,12.44,13.3,37.93,0,110.3,13.35,13.24,68.9
"2010-10-17 00:46:00",253833,2.858,105.3,0.934,0.054,12.68,105.1438,12.44,13.32,37.92,0,110.3,13.35,13.24,67.3
"2010-10-17 00:46:30",253834,3.661,111.9,7.571,1.249,14.82,105.1438,12.44,13.45,38.1,0,110.3,13.32,13.24,73.9
"2010-10-17 00:47:00",253835,3.327,111.5,5.608,1.011,14.1,105.1438,12.44,13.45,37.85,0,110.3,13.32,13.24,73.5
"2010-10-17 00:47:30",253836,3.38,110.8,6.174,1.022,14.14,105.1438,12.44,13.41,37.83,0,110.3,13.32,13.24,72.8
"2010-10-17 00:48:00",253837,4.329,118.8,6.983,1.372,16.65,105.1438,12.44,13.59,37.99,0,110.3,13.31,13.24,80.8
"2010-10-17 00:48:30",253838,4.762,120.5,6.619,1.233,16.04,105.1441,12.44,13.46,37.7,0,110.3,13.31,13.24,82.5
"2010-10-17 00:49:00",253839,2.965,110.1,0.749,0.032,12.25,105.1438,12.44,13.33,37.39,0,110.3,13.35,13.24,72.1
"2010-10-17 00:49:30",253840,3.779,114.5,6.449,1.23,13.37,105.1438,12.44,13.32,37.22,0,110.3,13.31,13.24,76.5
"2010-10-17 00:50:00",253841,4.063,119.1,7.38,1.313,14.71,105.1441,12.44,13.51,37.17,0,110.3,13.31,13.24,81.1
"2010-10-17 00:50:30",253842,3.186,110.2,3.383,0.721,12.23,105.1438,12.44,13.32,37.18,0,110.3,13.31,13.24,72.2
"2010-10-17 00:51:00",253843,2.898,111,1.346,0.04,12.22,105.1444,12.44,13.33,37.28,0,110.3,13.35,13.24,73.0
"2010-10-17 00:51:30",253844,2.859,109.7,0.982,0.056,12.47,105.1456,12.45,13.32,37.36,0,110.3,13.35,13.24,71.7
"2010-10-17 00:52:00",253845,3.224,111.6,5.214,0.874,13.75,105.1465,12.45,13.47,37.46,0,110.3,13.31,13.24,73.6
"2010-10-17 00:52:30",253846,3.684,113.8,6.517,1.268,14.56,105.1486,12.45,13.37,37.28,0,110.3,13.31,13.25,75.8
"2010-10-17 00:53:00",253847,4.11,116.1,7.912,1.371,15.49,105.1516,12.46,13.37,37.07,0,110.3,13.32,13.26,78.1
"2010-10-17 00:53:30",253848,4.362,116.1,6.814,1.298,16.09,105.1502,12.46,13.54,37.34,0,110.3,13.32,13.25,78.1
"2010-10-17 00:54:00",253849,3.665,111.9,6.877,1.252,14.14,105.1454,12.44,13.33,37.02,0,110.3,13.32,13.24,73.9
"2010-10-17 00:54:30",253850,2.835,107.3,0.476,0.014,12.33,105.1455,12.44,13.31,36.92,0,110.3,13.36,13.24,69.3
"2010-10-17 00:55:00",253851,4.011,114.4,7.114,1.302,14.5,105.1457,12.45,13.45,36.98,0,110.3,13.32,13.24,76.4
"2010-10-17 00:55:30",253852,3.497,110.6,5.917,1.094,13.64,105.1333,12.41,13.47,36.91,0,110.3,13.32,13.21,72.6
"2010-10-17 00:56:00",253853,3.01,107.4,0.572,0.041,12.01,105.1298,12.4,13.3,36.62,0,110.3,13.36,13.20,69.4
"2010-10-17 00:56:30",253854,2.937,107.1,0.632,0.035,12.21,105.1328,12.41,13.3,36.61,0,110.3,13.36,13.21,69.1
"2010-10-17 00:57:00",253855,2.983,106.8,0.646,0.028,12.53,105.1355,12.42,13.3,36.54,0,110.3,13.36,13.21,68.8
"2010-10-17 00:57:30",253856,4.123,113.8,7.29,1.382,15.05,105.1361,12.42,13.46,36.68,0,110.3,13.33,13.22,75.8
"2010-10-17 00:58:00",253857,3.579,110.9,5.263,1.113,14.31,105.1396,12.43,13.45,36.71,0,110.3,13.33,13.23,72.9
"2010-10-17 00:58:30",253858,4.244,116.3,6.918,1.364,15.56,105.1402,12.43,13.41,36.68,0,110.3,13.33,13.23,78.3
"2010-10-17 00:59:00",253859,3.736,115.8,6.204,1.206,14.47,105.1429,12.44,13.47,36.71,0,110.3,13.33,13.23,77.8
"2010-10-17 00:59:30",253860,3.893,118.4,6.839,1.307,14.47,105.145,12.44,13.36,36.59,0,110.3,13.33,13.24,80.4
"2010-10-17 01:00:00",253861,2.858,113.5,0.363,0.028,12.35,105.145,12.44,13.38,36.49,0,110.3,13.36,13.24,75.5
"2010-10-17 01:00:30",253862,4.109,119.4,6.98,1.346,14.62,105.1453,12.44,13.38,36.43,0,110.3,13.33,13.24,81.4
"2010-10-17 01:01:00",253863,2.874,111.8,0.442,0.024,12.13,105.1456,12.44,13.38,36.53,0,110.3,13.36,13.24,73.8
"2010-10-17 01:01:30",253864,2.905,111.4,0.78,0.032,12.01,105.1456,12.44,13.29,36.33,0,110.3,13.36,13.24,73.4
"2010-10-17 01:02:00",253865,2.894,111.6,0.289,0.019,12.31,105.1456,12.44,13.3,36.28,0,110.3,13.36,13.24,73.6
"2010-10-17 01:02:30",253866,4.005,116.7,7.063,1.338,14.37,105.1456,12.44,13.33,36.26,0,110.3,13.33,13.24,78.7
"2010-10-17 01:03:00",253867,3.527,114.3,5.402,1.042,14.04,105.1456,12.44,13.43,36.34,0,110.3,13.33,13.24,76.3
"2010-10-17 01:03:30",253868,4.907,121.8,6.474,1.249,16.34,105.1456,12.44,13.4,36.3,0,110.3,13.33,13.24,83.8
"2010-10-17 01:04:00",253869,3.746,116.6,6.197,1.17,14.53,105.1456,12.44,13.49,36.38,0,110.3,13.33,13.24,78.6
"2010-10-17 01:04:30",253870,3.536,114.8,3.889,0.923,13.61,105.1456,12.44,13.45,36.3,0,110.3,13.32,13.24,76.8
"2010-10-17 01:05:00",253871,4.078,116.1,6.57,1.276,13.86,105.1456,12.44,13.29,36.13,0,110.3,13.32,13.24,78.1
"2010-10-17 01:05:30",253872,3.209,111.5,0.02,0.034,12.58,105.1456,12.44,13.42,36.2,0,110.3,13.36,13.24,73.5
"2010-10-17 01:06:00",253873,4.476,118.4,6.667,1.323,14.59,105.1456,12.44,13.36,36.13,0,110.3,13.32,13.24,80.4
"2010-10-17 01:06:30",253874,3.226,112.8,0.525,0.034,12.35,105.1456,12.44,13.3,36.06,0,110.3,13.36,13.24,74.8
"2010-10-17 01:07:00",253875,3.188,113.7,0.556,0.033,12.47,105.1456,12.44,13.28,36.03,0,110.3,13.36,13.24,75.7
"2010-10-17 01:07:30",253876,3.334,115.4,2.52,0.501,12.88,105.1456,12.44,13.29,35.9,0,110.3,13.33,13.24,77.4
"2010-10-17 01:08:00",253877,3.838,118,5.635,1.194,13.98,105.1456,12.44,13.38,35.86,0,110.3,13.32,13.24,80.0
"2010-10-17 01:08:30",253878,5.086,127,5.939,1.152,17.21,105.1456,12.44,13.48,35.93,0,110.3,13.32,13.24,89.0
"2010-10-17 01:09:00",253879,3.291,115.9,2.727,0.69,13.12,105.1456,12.44,13.38,35.83,0,110.3,13.33,13.24,77.9
"2010-10-17 01:09:30",253880,3.168,116.6,3.683,0.493,13.57,105.1456,12.44,13.43,35.9,0,110.3,13.36,13.24,78.6
"2010-10-17 01:10:00",253881,4.197,121.1,6.808,1.358,14.66,105.1456,12.44,13.35,35.72,0,110.3,13.33,13.24,83.1
"2010-10-17 01:10:30",253882,3.026,114.4,0.755,0.035,12.61,105.1456,12.44,13.3,35.59,0,110.3,13.36,13.24,76.4
"2010-10-17 01:11:00",253883,4.237,118.9,6.392,1.31,14.6,105.1456,12.44,13.45,35.78,0,110.3,13.33,13.24,80.9
"2010-10-17 01:11:30",253884,3.069,113.4,0.549,0.037,12.45,105.1456,12.44,13.3,35.63,0,110.3,13.37,13.24,75.4
"2010-10-17 01:12:00",253885,3.1,115.3,0.582,0.039,12.37,105.1456,12.44,13.3,35.59,0,110.3,13.37,13.24,77.3
"2010-10-17 01:12:30",253886,3.163,116.5,0.192,0.028,12.44,105.1456,12.44,13.29,35.49,0,110.3,13.37,13.24,78.5
"2010-10-17 01:13:00",253887,3.643,119,5.297,0.959,13.74,105.1456,12.44,13.44,35.53,0,110.3,13.33,13.24,81.0
"2010-10-17 01:13:30",253888,4.875,124.9,6.972,1.366,15.8,105.145,12.44,13.44,35.44,0,110.3,13.33,13.24,86.9
"2010-10-17 01:14:00",253889,4.959,126,6.978,1.339,16.42,105.1456,12.44,13.49,35.47,0,110.3,13.33,13.24,88.0
"2010-10-17 01:14:30",253890,3.427,117.6,2.632,0.686,13.3,105.1456,12.44,13.39,35.37,0,110.3,13.33,13.24,79.6
"2010-10-17 01:15:00",253891,4.239,122.6,6.657,1.31,14.31,105.1456,12.44,13.36,35.24,0,110.3,13.33,13.24,84.6
"2010-10-17 01:15:30",253892,3.651,119,5.142,0.824,13.27,105.1456,12.44,13.43,35.25,0,110.3,13.33,13.24,81.0
"2010-10-17 01:16:00",253893,4.543,121.9,6.609,1.338,14.51,105.1456,12.44,13.45,35.33,0,110.3,13.33,13.24,83.9
"2010-10-17 01:16:30",253894,3.488,114.6,0.569,0.233,12.24,105.1453,12.44,13.33,35.29,0,110.3,13.34,13.24,76.6
"2010-10-17 01:17:00",253895,3.509,114.7,0.64,0,12.17,105.1379,12.43,13.29,35.29,0,110.3,13.37,13.22,76.7
"2010-10-17 01:17:30",253896,3.635,115.6,0.366,0.041,12.34,105.1312,12.41,13.29,35.28,0,110.3,13.37,13.20,77.6
"2010-10-17 01:18:00",253897,4.638,119.8,6.442,1.333,14.06,105.1193,12.38,13.29,35.33,0,110.3,13.34,13.17,81.8
"2010-10-17 01:18:30",253898,4.78,122.6,6.957,1.339,15.43,105.1128,12.36,13.49,35.52,0,110.4,13.34,13.16,84.6
"2010-10-17 01:19:00",253899,4.157,118.9,4.421,0.947,14.16,105.112,12.36,13.47,35.23,0,110.3,13.34,13.15,80.9
"2010-10-17 01:19:30",253900,5.59,125.7,6.3,1.235,16.24,105.1117,12.36,13.35,35.04,0,110.3,13.34,13.15,87.7
"2010-10-17 01:20:00",253901,4.14,116.3,4.3,0.935,13.12,105.1117,12.36,13.39,35.07,0,110.3,13.34,13.15,78.3
"2010-10-17 01:20:30",253902,4.638,119.7,6.392,1.247,13.8,105.1117,12.36,13.32,35.02,0,110.3,13.34,13.15,81.7
"2010-10-17 01:21:00",253903,4.976,122,6.62,1.298,14.6,105.1117,12.36,13.35,35.09,0,110.3,13.33,13.15,84.0
"2010-10-17 01:21:30",253904,3.935,116.7,3.494,0.535,12.97,105.1117,12.36,13.4,35.14,0,110.3,13.33,13.15,78.7
"2010-10-17 01:22:00",253905,3.843,115.1,0.53,0.034,12.29,105.1117,12.36,13.23,34.99,0,110.3,13.36,13.15,77.1
"2010-10-17 01:22:30",253906,4.029,114,1.338,0.123,12.51,105.1117,12.36,13.25,34.98,0,110.3,13.36,13.15,76.0
"2010-10-17 01:23:00",253907,5.275,117.5,6.448,1.326,14.7,105.1114,12.36,13.43,35.17,0,110.3,13.33,13.15,79.5
"2010-10-17 01:23:30",253908,6.308,124.7,6.196,1.326,16.97,105.1007,12.33,13.48,35.26,0,110.3,13.33,13.13,86.7
"2010-10-17 01:24:00",253909,5.433,117.1,6.091,1.268,14.22,105.0796,12.28,13.22,35.13,0,110.3,13.33,13.07,79.1
"2010-10-17 01:24:30",253910,5.604,118.8,5.488,1.245,14.1,105.0779,12.27,13.23,35.29,0,110.2,13.33,13.07,80.8
"2010-10-17 01:25:00",253911,6.062,122.6,7.436,1.331,14.61,105.0779,12.27,13.3,35.39,0,110.3,13.33,13.07,84.6
"2010-10-17 01:25:30",253912,4.989,116.5,1.199,0.543,12.56,105.0779,12.27,13.29,35.43,0,110.3,13.33,13.07,78.5
"2010-10-17 01:26:00",253913,5.999,123.6,7.284,1.38,14.36,105.0708,12.25,13.21,35.33,0,110.3,13.33,13.05,85.6
"2010-10-17 01:26:30",253914,4.653,116.1,0.712,0.03,12.27,105.0511,12.2,13.15,35.34,0,110.3,13.37,13.00,78.1
"2010-10-17 01:27:00",253915,4.783,118.1,3.736,0.495,12.93,105.044,12.19,13.23,35.47,0,110.3,13.38,12.98,80.1
"2010-10-17 01:27:30",253916,6.334,125.9,6.671,1.351,15.78,105.044,12.19,13.25,35.47,0,110.3,13.34,12.98,87.9
"2010-10-17 01:28:00",253917,5.894,125.1,6.83,1.364,15.2,105.044,12.19,13.22,35.37,0,110.3,13.34,12.98,87.1
"2010-10-17 01:28:30",253918,4.778,119.7,2.445,0.541,13.27,105.044,12.19,13.21,35.39,0,110.3,13.34,12.98,81.7
"2010-10-17 01:29:00",253919,5.738,125.3,7.161,1.306,14.69,105.044,12.19,13.23,35.38,0,110.3,13.34,12.98,87.3
"2010-10-17 01:29:30",253920,4.658,121.1,0.522,0.028,12.62,105.044,12.19,13.11,35.25,0,110.3,13.38,12.98,83.1
"2010-10-17 01:30:00",253921,5.734,126.6,7.149,1.333,14.72,105.044,12.19,13.24,35.37,0,110.2,13.34,12.98,88.6
"2010-10-17 01:30:30",253922,4.306,119,1.312,0.044,12.6,105.044,12.19,13.23,35.44,0,110.3,13.38,12.98,81.0
"2010-10-17 01:31:00",253923,4.568,118.6,0.271,0.091,12.42,105.0446,12.19,13.08,35.31,0,110.3,13.38,12.98,80.6
"2010-10-17 01:31:30",253924,4.739,119.4,0.812,0.023,12.47,105.0437,12.18,13.1,35.4,0,110.3,13.38,12.98,81.4
"2010-10-17 01:32:00",253925,6.272,128.4,7.165,1.378,15.8,105.0412,12.18,13.34,35.6,0,110.3,13.34,12.97,90.4
"2010-10-17 01:32:30",253926,6.799,129.3,6.036,1.188,16.49,105.0359,12.16,13.22,35.55,0,110.2,13.34,12.96,91.3
"2010-10-17 01:33:00",253927,5.536,119.1,6.16,1.13,13.49,105.0203,12.12,13.05,35.48,0,110.3,13.34,12.92,81.1
"2010-10-17 01:33:30",253928,5.962,118.8,6.541,1.296,14.52,105.0113,12.1,13.19,36.03,0,110.2,13.34,12.90,80.8
"2010-10-17 01:34:00",253929,5.838,119.7,6.159,1.247,13.5,105.011,12.1,13.04,35.75,0,110.3,13.34,12.89,81.7
"2010-10-17 01:34:30",253930,5.964,122.3,6.558,1.279,14.34,105.0113,12.1,13.19,35.82,0,110.2,13.34,12.90,84.3
"2010-10-17 01:35:00",253931,5.317,118.7,3.315,0.812,12.48,105.0044,12.08,13,35.65,0,110.2,13.34,12.88,80.7
"2010-10-17 01:35:30",253932,5.055,119.6,0.592,0.033,12.46,104.9951,12.06,13.08,35.73,0,110.2,13.38,12.85,81.6
"2010-10-17 01:36:00",253933,6.491,130.8,6.598,1.364,15.54,104.9892,12.04,13.12,35.77,0,110.2,13.34,12.84,92.8
"2010-10-17 01:36:30",253934,6.835,131.6,6.633,1.203,16.11,104.9909,12.05,13.13,35.8,0,110.2,13.34,12.84,93.6
"2010-10-17 01:37:00",253935,5.588,125.1,6.289,1.21,14.22,104.9882,12.04,13.06,35.81,0,110.2,13.34,12.84,87.1
"2010-10-17 01:37:30",253936,5.332,124.9,4.667,0.984,13.33,104.9885,12.04,13.09,35.75,0,110.2,13.34,12.84,86.9
"2010-10-17 01:38:00",253937,5.76,126.8,6.888,1.329,13.93,104.9896,12.05,12.98,35.62,0,110.2,13.34,12.84,88.8
"2010-10-17 01:38:30",253938,5.247,125.7,3.725,0.915,12.58,104.9878,12.04,13.06,35.56,0,110.3,13.33,12.84,87.7
"2010-10-17 01:39:00",253939,6.224,132.9,6.131,1.25,14.36,104.987,12.04,13.03,35.59,0,110.2,13.33,12.83,94.9
"2010-10-17 01:39:30",253940,4.99,127.6,0.787,0.037,12.43,104.987,12.04,12.96,35.49,0,110.2,13.37,12.83,89.6
"2010-10-17 01:40:00",253941,5.02,128.1,1.296,0.247,12.86,104.9878,12.04,13.05,35.6,0,110.2,13.34,12.84,90.1
"2010-10-17 01:40:30",253942,6.847,137.4,6.203,1.236,16.42,104.9908,12.05,13.16,35.6,0,110.2,13.34,12.84,99.4
"2010-10-17 01:41:00",253943,6.403,133.6,6.89,1.325,15.34,104.9902,12.05,13.12,35.74,0,110.2,13.34,12.84,95.6
"2010-10-17 01:41:30",253944,6.645,135.6,6.771,1.284,15.79,104.9929,12.05,13.1,35.73,0,110.2,13.34,12.85,97.6
"2010-10-17 01:42:00",253945,5.157,127,0.535,0.472,12.27,104.992,12.05,12.95,35.46,0,110.2,13.34,12.85,89.0
"2010-10-17 01:42:30",253946,5.835,131.3,6.609,1.234,13.96,104.9938,12.06,13.11,35.52,0,110.2,13.34,12.85,93.3
"2010-10-17 01:43:00",253947,5.343,128.7,4.233,0.922,12.65,104.9811,12.02,13.02,35.53,0,110.2,13.34,12.82,90.7
"2010-10-17 01:43:30",253948,4.878,127.2,0.489,0.002,12.72,104.9735,12,12.95,35.44,0,110.2,13.38,12.80,89.2
"2010-10-17 01:44:00",253949,5.736,132.9,6.563,1.256,14.54,104.9812,12.02,13.05,35.35,0,110.2,13.34,12.82,94.9
"2010-10-17 01:44:30",253950,5.088,128.3,4.291,0.842,13.49,104.9849,12.03,13.07,35.3,0,110.2,13.34,12.83,90.3
"2010-10-17 01:45:00",253951,6.981,138.6,5.096,1.079,16.94,104.992,12.05,13.12,35.33,0,110.2,13.34,12.85,100.6
"2010-10-17 01:45:30",253952,6.512,136.6,6.7,1.286,16.14,104.9986,12.07,13.17,35.4,0,110.3,13.34,12.86,98.6
"2010-10-17 01:46:00",253953,5.334,130,5.07,1,13.08,105.0024,12.08,12.95,35.13,0,110.2,13.34,12.87,92.0
"2010-10-17 01:46:30",253954,4.95,128.4,0.454,0.077,12.21,105.0027,12.08,12.91,35.14,0,110.2,13.38,12.87,90.4
"2010-10-17 01:47:00",253955,6.303,135.6,6.852,1.366,14.49,105.0027,12.08,13.07,35.3,0,110.2,13.34,12.87,97.6
"2010-10-17 01:47:30",253956,5.393,130.3,0.497,0.081,12.41,105.0044,12.08,12.93,35.17,0,110.2,13.38,12.88,92.3
"2010-10-17 01:48:00",253957,6.579,135.6,6.978,1.353,14.18,105.0047,12.08,12.97,35.21,0,110.2,13.34,12.88,97.6
"2010-10-17 01:48:30",253958,6.099,132.8,5.075,0.984,13.79,105.008,12.09,13.07,35.37,0,110.2,13.35,12.89,94.8